Location: *
(46.4000°N, 12.6667°E)
Time: 17:43:12
(UTC+00:00)

Envisat - Pass Details

Date: 14 March 2021
Orbit: 764 x 766 km, 98.1° (Epoch: 21 April)

Event Time Altitude Azimuth Distance (km) Brightness Sun altitude
Rises 04:48:42 0° 14° (NNE) 3,244 6.5 -6.9°
Reaches altitude 10° 04:51:02 10° 16° (NNE) 2,313 5.8 -6.5°
Maximum altitude 04:56:08 78° 103° (ESE) 788 3.3 -5.6°
Drops below altitude 10° 05:01:12 10° 190° (S) 2,295 5.4 -4.8°
Sets 05:03:29 0° 191° (SSW) 3,216 6.1 -4.4°
